^^
Station Historical Data
Daily Summary for June 17, 2017 Units:  English    Metric   Both
« Previous Day
Next Day »
Daily Weekly Monthly Yearly Custom
  High: Low: Average:
Temperature: 77.0 °F 66.2 °F 70.6 °F
Dew Point: 72.4 °F 64.0 °F 67.6 °F
Humidity: 95 % 84 % 90 %
Wind Speed: 1.5 mph 0.0 mph 0 mph
Wind Gust: 4.6 mph - -
Wind:- - SSW
Pressure: 29.95 in 29.87 in -
Precipitation: 0.64 in    
Historical Graphs
 
 
Tabular Data for June 17, 2017
Time Temperature Dew Point Pressure Wind Wind Speed Wind Gust Humidity Rainfall Rate (Hourly) solar Conditions
00:03 68.2 °F 64.8 °F 29.93 in Calm   1.2 mph 89 % 0.00 in 0.0 W/m2 RA
00:08 68.1 °F 64.7 °F 29.92 in Calm   1.2 mph 89 % 0.00 in 0.0 W/m2 RA
00:13 68.0 °F 64.6 °F 29.93 in Calm     89 % 0.00 in 0.0 W/m2 OVC
00:18 68.0 °F 64.6 °F 29.93 in Calm     89 % 0.00 in 0.0 W/m2 OVC
00:23 68.0 °F 64.6 °F 29.92 in Calm     89 % 0.00 in 0.0 W/m2 OVC
00:28 68.0 °F 64.6 °F 29.92 in Calm     89 % 0.00 in 0.0 W/m2 OVC
00:33 68.0 °F 64.6 °F 29.92 in Calm     89 % 0.00 in 0.0 W/m2 OVC
00:38 68.0 °F 64.6 °F 29.92 in Calm     89 % 0.00 in 0.0 W/m2 OVC
00:43 67.9 °F 64.5 °F 29.92 in Calm     89 % 0.00 in 0.0 W/m2 OVC
00:48 67.9 °F 64.5 °F 29.92 in Calm     89 % 0.00 in 0.0 W/m2 OVC
00:53 68.0 °F 64.6 °F 29.93 in Calm     89 % 0.00 in 0.0 W/m2 OVC
00:58 68.0 °F 64.6 °F 29.92 in Calm     89 % 0.00 in 0.0 W/m2 OVC
01:03 68.1 °F 64.7 °F 29.93 in Calm     89 % 0.00 in 0.0 W/m2 OVC
01:05 68.0 °F 64.6 °F 29.93 in Calm     89 % 0.00 in 0.0 W/m2 OVC
01:10 67.9 °F 64.5 °F 29.92 in Calm     89 % 0.00 in 0.0 W/m2 OVC
01:15 68.0 °F 64.6 °F 29.92 in Calm     89 % 0.00 in 0.0 W/m2 OVC
01:20 68.0 °F 64.6 °F 29.92 in Calm     89 % 0.00 in 0.0 W/m2 OVC
01:25 67.9 °F 64.5 °F 29.92 in Calm     89 % 0.00 in 0.0 W/m2 OVC
01:28 67.9 °F 64.5 °F 29.92 in Calm     89 % 0.00 in 0.0 W/m2 OVC
01:33 67.9 °F 64.5 °F 29.92 in Calm     89 % 0.00 in 0.0 W/m2 OVC
01:38 67.8 °F 64.8 °F 29.92 in Calm     90 % 0.00 in 0.0 W/m2 OVC
01:43 67.8 °F 64.4 °F 29.91 in Calm     89 % 0.00 in 0.0 W/m2 OVC
01:44 67.8 °F 64.4 °F 29.91 in Calm     89 % 0.00 in 0.0 W/m2 OVC
01:49 67.7 °F 64.7 °F 29.91 in Calm     90 % 0.00 in 0.0 W/m2 OVC
01:54 67.7 °F 64.7 °F 29.91 in Calm   1.2 mph 90 % 0.00 in 0.0 W/m2 OVC
01:59 67.6 °F 64.6 °F 29.91 in Calm   1.2 mph 90 % 0.00 in 0.0 W/m2 OVC
02:04 67.6 °F 64.6 °F 29.91 in Calm     90 % 0.00 in 0.0 W/m2 OVC
02:09 67.7 °F 64.7 °F 29.91 in Calm     90 % 0.00 in 0.0 W/m2 OVC
02:14 67.5 °F 64.5 °F 29.91 in Calm     90 % 0.00 in 0.0 W/m2 OVC
02:19 67.5 °F 64.5 °F 29.91 in Calm     90 % 0.00 in 0.0 W/m2 OVC
02:24 67.6 °F 64.6 °F 29.91 in Calm     90 % 0.00 in 0.0 W/m2 OVC
02:29 67.5 °F 64.5 °F 29.91 in Calm     90 % 0.00 in 0.0 W/m2 OVC
02:34 67.6 °F 64.6 °F 29.91 in Calm     90 % 0.00 in 0.0 W/m2 OVC
02:39 67.6 °F 64.6 °F 29.91 in Calm     90 % 0.00 in 0.0 W/m2 OVC
02:44 67.6 °F 64.6 °F 29.91 in Calm     90 % 0.00 in 0.0 W/m2 OVC
02:49 67.6 °F 64.6 °F 29.91 in Calm     90 % 0.00 in 0.0 W/m2 OVC
02:54 67.6 °F 64.6 °F 29.91 in Calm     90 % 0.00 in 0.0 W/m2 OVC
02:59 67.5 °F 64.5 °F 29.91 in Calm     90 % 0.00 in 0.0 W/m2 OVC
03:04 67.5 °F 64.5 °F 29.91 in Calm     90 % 0.00 in 0.0 W/m2 OVC
03:09 67.5 °F 64.5 °F 29.91 in Calm     90 % 0.00 in 0.0 W/m2 OVC
03:14 67.5 °F 64.5 °F 29.91 in Calm     90 % 0.00 in 0.0 W/m2 OVC
03:19 67.4 °F 64.4 °F 29.90 in Calm     90 % 0.00 in 0.0 W/m2 OVC
03:25 67.4 °F 64.4 °F 29.90 in Calm     90 % 0.00 in 0.0 W/m2 OVC
03:30 67.4 °F 64.4 °F 29.91 in Calm     90 % 0.00 in 0.0 W/m2 OVC
03:35 67.4 °F 64.4 °F 29.91 in Calm     90 % 0.00 in 0.0 W/m2 OVC
03:40 67.4 °F 64.7 °F 29.91 in Calm     91 % 0.00 in 0.0 W/m2 OVC
03:45 67.3 °F 64.6 °F 29.91 in Calm     91 % 0.00 in 0.0 W/m2 OVC
03:46 67.3 °F 64.6 °F 29.91 in Calm     91 % 0.00 in 0.0 W/m2 OVC
03:51 67.2 °F 64.5 °F 29.91 in Calm   1.2 mph 91 % 0.00 in 0.0 W/m2 OVC
03:56 67.2 °F 64.5 °F 29.91 in Calm   1.2 mph 91 % 0.00 in 0.0 W/m2 OVC
04:01 67.2 °F 64.5 °F 29.91 in Calm     91 % 0.00 in 0.0 W/m2 OVC
04:06 67.2 °F 64.5 °F 29.91 in Calm     91 % 0.00 in 0.0 W/m2 OVC
04:11 67.2 °F 64.5 °F 29.91 in Calm     91 % 0.00 in 0.0 W/m2 OVC
04:16 67.1 °F 64.4 °F 29.91 in Calm   1.2 mph 91 % 0.00 in 0.0 W/m2 OVC
04:21 66.9 °F 64.2 °F 29.91 in Calm   1.2 mph 91 % 0.00 in 0.0 W/m2 OVC
04:26 66.9 °F 64.2 °F 29.91 in Calm   1.2 mph 91 % 0.00 in 0.0 W/m2 OVC
04:31 66.9 °F 64.5 °F 29.91 in Calm     92 % 0.00 in 0.0 W/m2 OVC
04:36 66.8 °F 64.4 °F 29.91 in Calm   1.2 mph 92 % 0.00 in 0.0 W/m2 OVC
04:41 66.7 °F 64.3 °F 29.91 in Calm   1.2 mph 92 % 0.00 in 0.0 W/m2 OVC
04:46 66.6 °F 64.2 °F 29.91 in Calm     92 % 0.00 in 0.0 W/m2 OVC
04:51 66.6 °F 64.2 °F 29.91 in Calm     92 % 0.00 in 0.0 W/m2 OVC
04:56 66.6 °F 64.2 °F 29.91 in Calm     92 % 0.00 in 0.0 W/m2 OVC
05:01 66.6 °F 64.2 °F 29.91 in Calm     92 % 0.00 in 0.0 W/m2 OVC
05:06 66.5 °F 64.1 °F 29.91 in Calm     92 % 0.00 in 0.0 W/m2 OVC
05:11 66.5 °F 64.1 °F 29.91 in Calm     92 % 0.00 in 0.0 W/m2 OVC
05:16 66.4 °F 64.0 °F 29.91 in Calm     92 % 0.00 in 0.0 W/m2 OVC
05:21 66.4 °F 64.3 °F 29.92 in Calm     93 % 0.00 in 0.0 W/m2 OVC
05:26 66.5 °F 64.4 °F 29.92 in Calm     93 % 0.00 in 0.0 W/m2 OVC
05:31 66.4 °F 64.3 °F 29.92 in Calm     93 % 0.00 in 0.0 W/m2 OVC
05:36 66.4 °F 64.3 °F 29.92 in Calm     93 % 0.00 in 0.0 W/m2 OVC
05:41 66.4 °F 64.3 °F 29.92 in Calm     93 % 0.00 in 0.0 W/m2 OVC
05:46 66.3 °F 64.2 °F 29.92 in Calm   1.2 mph 93 % 0.00 in 5.0 W/m2 OVC
05:51 66.3 °F 64.2 °F 29.91 in Calm   1.2 mph 93 % 0.00 in 0.0 W/m2 OVC
05:56 66.3 °F 64.2 °F 29.91 in Calm   1.2 mph 93 % 0.00 in 5.0 W/m2 OVC
06:01 66.2 °F 64.1 °F 29.91 in Calm   1.2 mph 93 % 0.00 in 7.0 W/m2 OVC
06:06 66.2 °F 64.1 °F 29.90 in Calm   1.2 mph 93 % 0.00 in 12.0 W/m2 OVC
06:11 66.2 °F 64.1 °F 29.91 in Calm   1.2 mph 93 % 0.00 in 18.0 W/m2 OVC
06:16 66.3 °F 64.2 °F 29.91 in Calm     93 % 0.00 in 18.0 W/m2 OVC
06:21 66.3 °F 64.2 °F 29.91 in Calm     93 % 0.00 in 18.0 W/m2 OVC
06:26 66.4 °F 64.3 °F 29.91 in Calm     93 % 0.00 in 21.0 W/m2 OVC
06:27 66.3 °F 64.2 °F 29.91 in Calm     93 % 0.00 in 21.0 W/m2 OVC
06:32 66.3 °F 64.2 °F 29.91 in Calm     93 % 0.00 in 25.0 W/m2 OVC
06:37 66.3 °F 64.2 °F 29.91 in Calm     93 % 0.00 in 32.0 W/m2 OVC
06:42 66.3 °F 64.2 °F 29.92 in Calm     93 % 0.00 in 26.0 W/m2 OVC
06:47 66.4 °F 64.3 °F 29.92 in Calm   1.2 mph 93 % 0.00 in 40.0 W/m2 OVC
06:52 66.4 °F 64.3 °F 29.92 in Calm   1.2 mph 93 % 0.00 in 56.0 W/m2 OVC
06:57 66.6 °F 64.5 °F 29.92 in Calm   1.2 mph 93 % 0.00 in 54.0 W/m2 OVC
07:02 66.6 °F 64.5 °F 29.93 in Calm     93 % 0.00 in 37.0 W/m2 OVC
07:07 66.5 °F 64.4 °F 29.93 in Calm   1.2 mph 93 % 0.00 in 32.0 W/m2 OVC
07:12 66.5 °F 64.4 °F 29.93 in Calm   1.2 mph 93 % 0.00 in 37.0 W/m2 OVC
07:17 66.5 °F 64.4 °F 29.92 in Calm     93 % 0.00 in 58.0 W/m2 OVC
07:22 66.6 °F 64.5 °F 29.92 in Calm     93 % 0.00 in 58.0 W/m2 OVC
07:27 66.6 °F 64.5 °F 29.92 in Calm     93 % 0.00 in 39.0 W/m2 OVC
07:32 66.6 °F 64.5 °F 29.92 in Calm     93 % 0.00 in 40.0 W/m2 OVC
07:37 66.6 °F 64.5 °F 29.92 in Calm   1.2 mph 93 % 0.00 in 51.0 W/m2 OVC
07:42 66.7 °F 64.6 °F 29.92 in Calm   1.2 mph 93 % 0.00 in 63.0 W/m2 OVC
07:47 66.7 °F 64.6 °F 29.93 in Calm     93 % 0.00 in 97.0 W/m2 OVC
07:52 66.8 °F 64.7 °F 29.93 in Calm   1.2 mph 93 % 0.00 in 47.0 W/m2 OVC
07:57 66.8 °F 64.7 °F 29.93 in Calm   1.2 mph 93 % 0.00 in 42.0 W/m2 OVC
08:02 66.7 °F 64.6 °F 29.93 in Calm   1.2 mph 93 % 0.00 in 56.0 W/m2 OVC
08:07 66.9 °F 64.8 °F 29.93 in Calm     93 % 0.00 in 47.0 W/m2 OVC
08:12 66.9 °F 64.8 °F 29.93 in Calm     93 % 0.00 in 63.0 W/m2 OVC
08:17 66.9 °F 64.8 °F 29.93 in Calm   1.2 mph 93 % 0.00 in 32.0 W/m2 OVC
08:22 66.9 °F 64.8 °F 29.94 in Calm   1.2 mph 93 % 0.00 in 12.0 W/m2 OVC
08:27 66.9 °F 64.8 °F 29.94 in Calm   1.2 mph 93 % 0.02 in 25.0 W/m2 RA
08:32 67.0 °F 64.9 °F 29.95 in SSW 1.1 mph 2.3 mph 93 % 0.16 in 9.0 W/m2 RA
08:37 66.8 °F 64.7 °F 29.95 in Calm   3.5 mph 93 % 0.26 in 14.0 W/m2 RA
08:42 66.8 °F 64.7 °F 29.94 in Calm   3.5 mph 93 % 0.38 in 19.0 W/m2 RA
08:47 66.6 °F 64.5 °F 29.94 in Calm     93 % 0.52 in 16.0 W/m2 RA
08:52 66.5 °F 64.7 °F 29.94 in Calm     94 % 0.59 in 16.0 W/m2 RA
08:57 66.4 °F 64.6 °F 29.93 in Calm     94 % 0.63 in 18.0 W/m2 RA
09:03 66.5 °F 64.7 °F 29.94 in Calm     94 % 0.63 in 26.0 W/m2 -RA
09:08 66.5 °F 64.7 °F 29.94 in Calm     94 % 0.63 in 104.0 W/m2 -RA
09:13 66.6 °F 64.8 °F 29.94 in Calm     94 % 0.63 in 95.0 W/m2 -RA
09:18 66.9 °F 65.1 °F 29.94 in Calm   1.2 mph 94 % 0.63 in 104.0 W/m2 -RA
09:23 67.0 °F 65.2 °F 29.94 in Calm   1.2 mph 94 % 0.63 in 132.0 W/m2 -RA
09:28 67.3 °F 65.8 °F 29.94 in Calm   1.2 mph 95 % 0.61 in 135.0 W/m2 -RA
09:33 67.3 °F 65.8 °F 29.94 in Calm     95 % 0.47 in 102.0 W/m2 -RA
09:38 67.2 °F 65.7 °F 29.94 in Calm     95 % 0.37 in 162.0 W/m2 OVC
09:43 67.3 °F 65.8 °F 29.94 in Calm     95 % 0.21 in 81.0 W/m2 OVC
09:48 67.1 °F 65.6 °F 29.94 in Calm     95 % 0.09 in 86.0 W/m2 OVC
09:53 66.9 °F 65.1 °F 29.94 in Calm     94 % 0.02 in 72.0 W/m2 +RA
09:58 67.0 °F 65.5 °F 29.94 in Calm     95 % 0.00 in 84.0 W/m2 +RA
10:03 67.0 °F 65.5 °F 29.94 in Calm   1.2 mph 95 % 0.00 in 113.0 W/m2 OVC
10:08 67.2 °F 65.7 °F 29.94 in Calm   1.2 mph 95 % 0.00 in 125.0 W/m2 OVC
10:13 67.2 °F 65.7 °F 29.94 in Calm     95 % 0.00 in 118.0 W/m2 OVC
10:18 67.4 °F 65.9 °F 29.94 in Calm     95 % 0.00 in 86.0 W/m2 OVC
10:23 67.3 °F 65.8 °F 29.94 in Calm     95 % 0.00 in 79.0 W/m2 -RA
10:28 67.3 °F 65.8 °F 29.93 in Calm     95 % 0.00 in 128.0 W/m2 -RA
10:33 67.7 °F 66.2 °F 29.93 in Calm     95 % 0.00 in 167.0 W/m2 -RA
10:38 67.7 °F 66.2 °F 29.93 in Calm   2.3 mph 95 % 0.00 in 171.0 W/m2 OVC
10:43 67.7 °F 66.2 °F 29.93 in Calm   2.3 mph 95 % 0.00 in 304.0 W/m2 OVC
10:48 68.1 °F 66.6 °F 29.93 in Calm     95 % 0.00 in 221.0 W/m2 OVC
10:53 68.4 °F 66.9 °F 29.93 in Calm     95 % 0.00 in 318.0 W/m2 -RA
10:58 68.6 °F 67.1 °F 29.93 in Calm     95 % 0.00 in 269.0 W/m2 -RA
11:03 68.7 °F 67.2 °F 29.93 in Calm     95 % 0.00 in 339.0 W/m2 OVC
11:08 68.8 °F 67.3 °F 29.93 in Calm   1.2 mph 95 % 0.00 in 227.0 W/m2 OVC
11:13 68.8 °F 67.0 °F 29.93 in Calm   1.2 mph 94 % 0.00 in 202.0 W/m2 OVC
11:18 68.8 °F 67.0 °F 29.93 in Calm   1.2 mph 94 % 0.00 in 183.0 W/m2 OVC
11:23 68.8 °F 67.0 °F 29.93 in Calm     94 % 0.00 in 183.0 W/m2 OVC
11:28 69.0 °F 67.2 °F 29.93 in Calm     94 % 0.00 in 165.0 W/m2 OVC
11:33 69.0 °F 67.2 °F 29.93 in Calm     94 % 0.00 in 171.0 W/m2 OVC
11:38 69.0 °F 67.2 °F 29.93 in Calm     94 % 0.00 in 209.0 W/m2 OVC
11:43 69.3 °F 67.5 °F 29.93 in Calm   1.2 mph 94 % 0.00 in 192.0 W/m2 OVC
11:48 69.4 °F 67.3 °F 29.93 in Calm   1.2 mph 93 % 0.00 in 146.0 W/m2 OVC
11:53 69.6 °F 67.5 °F 29.93 in Calm     93 % 0.00 in 188.0 W/m2 OVC
11:58 69.8 °F 68.0 °F 29.93 in Calm     94 % 0.00 in 199.0 W/m2 OVC
12:03 69.8 °F 67.7 °F 29.93 in Calm   1.2 mph 93 % 0.00 in 149.0 W/m2 OVC
12:08 69.5 °F 67.4 °F 29.93 in Calm   1.2 mph 93 % 0.00 in 123.0 W/m2 OVC
12:13 69.6 °F 67.5 °F 29.93 in Calm     93 % 0.00 in 169.0 W/m2 OVC
12:18 69.9 °F 67.8 °F 29.93 in Calm     93 % 0.00 in 179.0 W/m2 OVC
12:23 70.1 °F 68.0 °F 29.93 in Calm     93 % 0.00 in 200.0 W/m2 OVC
12:28 70.1 °F 67.7 °F 29.93 in Calm     92 % 0.00 in 158.0 W/m2 OVC
12:33 70.2 °F 67.8 °F 29.93 in Calm   1.2 mph 92 % 0.00 in 195.0 W/m2 OVC
12:38 70.4 °F 68.0 °F 29.93 in Calm   1.2 mph 92 % 0.00 in 272.0 W/m2 OVC
12:43 70.5 °F 68.1 °F 29.92 in Calm   1.2 mph 92 % 0.00 in 260.0 W/m2 OVC
12:49 70.6 °F 67.8 °F 29.92 in Calm   1.2 mph 91 % 0.00 in 230.0 W/m2 OVC
12:54 71.1 °F 68.7 °F 29.92 in Calm     92 % 0.00 in 371.0 W/m2 OVC
12:59 71.6 °F 68.8 °F 29.92 in Calm     91 % 0.00 in 466.0 W/m2 OVC
13:04 72.0 °F 68.9 °F 29.92 in Calm   1.2 mph 90 % 0.00 in 271.0 W/m2 OVC
13:09 72.1 °F 69.0 °F 29.92 in Calm   1.2 mph 90 % 0.00 in 167.0 W/m2 OVC
13:14 71.7 °F 68.3 °F 29.92 in Calm     89 % 0.00 in 102.0 W/m2 OVC
13:19 71.8 °F 68.7 °F 29.92 in Calm     90 % 0.00 in 134.0 W/m2 OVC
13:24 71.9 °F 68.8 °F 29.92 in WSW 0.4 mph 2.3 mph 90 % 0.00 in 165.0 W/m2 OVC
13:29 72.1 °F 68.7 °F 29.92 in Calm   3.5 mph 89 % 0.00 in 142.0 W/m2 OVC
13:34 72.1 °F 68.7 °F 29.92 in SSW 0.4 mph 3.5 mph 89 % 0.00 in 144.0 W/m2 OVC
13:39 72.2 °F 68.8 °F 29.92 in SSW 0.1 mph 4.6 mph 89 % 0.00 in 146.0 W/m2 OVC
13:44 71.9 °F 68.5 °F 29.92 in SSW 0.7 mph 4.6 mph 89 % 0.00 in 183.0 W/m2 OVC
13:49 72.1 °F 68.7 °F 29.92 in Calm   3.5 mph 89 % 0.00 in 139.0 W/m2 OVC
13:54 72.0 °F 68.6 °F 29.92 in Calm   3.5 mph 89 % 0.00 in 90.0 W/m2 OVC
13:59 72.0 °F 68.6 °F 29.92 in SSW 0.1 mph 1.2 mph 89 % 0.00 in 54.0 W/m2 OVC
14:04 72.2 °F 69.1 °F 29.92 in Calm   3.5 mph 90 % 0.00 in 69.0 W/m2 OVC
14:09 71.9 °F 68.5 °F 29.92 in SSW 0.1 mph 3.5 mph 89 % 0.00 in 72.0 W/m2 OVC
14:14 71.9 °F 68.8 °F 29.92 in Calm   3.5 mph 90 % 0.00 in 81.0 W/m2 OVC
14:19 71.9 °F 68.8 °F 29.92 in Calm   3.5 mph 90 % 0.00 in 123.0 W/m2 OVC
14:24 71.9 °F 68.8 °F 29.92 in Calm   3.5 mph 90 % 0.00 in 172.0 W/m2 OVC
14:29 72.2 °F 69.1 °F 29.91 in Calm   1.2 mph 90 % 0.00 in 165.0 W/m2 OVC
14:34 72.3 °F 69.2 °F 29.91 in Calm     90 % 0.00 in 172.0 W/m2 OVC
14:39 72.3 °F 69.2 °F 29.91 in Calm     90 % 0.00 in 206.0 W/m2 OVC
14:44 72.2 °F 69.1 °F 29.91 in Calm     90 % 0.00 in 190.0 W/m2 OVC
14:49 72.5 °F 69.4 °F 29.91 in Calm   1.2 mph 90 % 0.00 in 223.0 W/m2 OVC
14:54 72.4 °F 69.0 °F 29.91 in Calm   1.2 mph 89 % 0.00 in 206.0 W/m2 OVC
14:59 72.4 °F 69.0 °F 29.91 in Calm   1.2 mph 89 % 0.00 in 193.0 W/m2 OVC
15:04 72.5 °F 69.4 °F 29.91 in Calm     90 % 0.00 in 255.0 W/m2 OVC
15:09 72.6 °F 69.2 °F 29.91 in Calm     89 % 0.00 in 251.0 W/m2 OVC
15:14 72.8 °F 69.4 °F 29.91 in Calm     89 % 0.00 in 297.0 W/m2 OVC
15:19 73.1 °F 69.7 °F 29.91 in North 1.1 mph 1.2 mph 89 % 0.00 in 251.0 W/m2 OVC
15:24 73.3 °F 69.5 °F 29.90 in Calm   3.5 mph 88 % 0.00 in 299.0 W/m2 OVC
15:29 73.8 °F 70.4 °F 29.90 in Calm   3.5 mph 89 % 0.00 in 396.0 W/m2 OVC
15:34 74.9 °F 70.8 °F 29.90 in Calm   1.2 mph 87 % 0.00 in 394.0 W/m2 OVC
15:39 74.6 °F 70.1 °F 29.89 in Calm   1.2 mph 86 % 0.00 in 329.0 W/m2 OVC
15:44 74.6 °F 70.1 °F 29.89 in Calm   3.5 mph 86 % 0.00 in 359.0 W/m2 OVC
15:49 74.7 °F 70.2 °F 29.89 in North 0.1 mph 3.5 mph 86 % 0.00 in 264.0 W/m2 OVC
15:55 74.7 °F 70.2 °F 29.89 in Calm   2.0 mph 86 % 0.00 in 323.0 W/m2 OVC
16:00 74.9 °F 70.4 °F 29.89 in Calm   2.3 mph 86 % 0.00 in 250.0 W/m2 OVC
16:05 75.2 °F 70.7 °F 29.89 in Calm     86 % 0.00 in 285.0 W/m2 OVC
16:10 75.2 °F 70.4 °F 29.89 in North 1.0 mph 4.0 mph 85 % 0.00 in 308.0 W/m2 OVC
16:15 75.5 °F 70.7 °F 29.89 in Calm   3.5 mph 85 % 0.00 in 295.0 W/m2 OVC
16:20 75.5 °F 70.7 °F 29.89 in Calm     85 % 0.00 in 346.0 W/m2 OVC
16:25 75.9 °F 71.4 °F 29.89 in Calm   1.2 mph 86 % 0.00 in 345.0 W/m2 OVC
16:30 76.4 °F 71.9 °F 29.88 in Calm   1.2 mph 86 % 0.00 in 510.0 W/m2 OVC
16:35 76.6 °F 71.7 °F 29.89 in Calm   1.0 mph 85 % 0.00 in 380.0 W/m2 OVC
16:40 76.4 °F 71.6 °F 29.88 in North 1.5 mph 3.5 mph 85 % 0.00 in 364.0 W/m2 SCT
16:45 76.1 °F 71.3 °F 29.89 in North 0.1 mph 3.5 mph 85 % 0.00 in 244.0 W/m2 SCT
16:50 76.0 °F 71.2 °F 29.88 in Calm   3.5 mph 85 % 0.00 in 105.0 W/m2 SCT
16:55 75.8 °F 71.0 °F 29.88 in Calm   3.5 mph 85 % 0.00 in 134.0 W/m2 SCT
17:00 75.8 °F 71.0 °F 29.88 in Calm   1.2 mph 85 % 0.00 in 216.0 W/m2 SCT
17:05 76.1 °F 71.3 °F 29.88 in East 0.1 mph 1.2 mph 85 % 0.00 in 216.0 W/m2 BKN
17:10 76.1 °F 70.9 °F 29.88 in East 0.5 mph 2.3 mph 84 % 0.00 in 88.0 W/m2 BKN
17:15 75.9 °F 71.1 °F 29.88 in SE 0.9 mph 3.5 mph 85 % 0.00 in 95.0 W/m2 BKN
17:20 76.2 °F 71.4 °F 29.88 in Calm   3.5 mph 85 % 0.00 in 345.0 W/m2 BKN
17:25 76.6 °F 71.4 °F 29.88 in Calm   3.5 mph 84 % 0.00 in 436.0 W/m2 BKN
17:30 76.9 °F 71.7 °F 29.88 in Calm     84 % 0.00 in 225.0 W/m2 BKN
17:35 76.5 °F 71.3 °F 29.87 in Calm   1.2 mph 84 % 0.00 in 171.0 W/m2 BKN
17:40 76.2 °F 71.0 °F 29.88 in Calm   1.2 mph 84 % 0.00 in 135.0 W/m2 BKN
17:45 75.9 °F 70.7 °F 29.88 in Calm   1.2 mph 84 % 0.00 in 116.0 W/m2 BKN
17:51 75.9 °F 71.1 °F 29.88 in Calm   1.2 mph 85 % 0.00 in 162.0 W/m2 BKN
17:56 76.2 °F 71.4 °F 29.87 in Calm   1.2 mph 85 % 0.00 in 334.0 W/m2 BKN
18:01 76.7 °F 72.2 °F 29.87 in Calm   1.2 mph 86 % 0.01 in 429.0 W/m2 RA
18:05 77.0 °F 72.1 °F 29.88 in Calm   1.2 mph 85 % 0.01 in 195.0 W/m2 RA
18:10 76.8 °F 72.3 °F 29.88 in Calm   1.2 mph 86 % 0.01 in 199.0 W/m2 OVC
18:16 76.8 °F 72.3 °F 29.87 in Calm   1.2 mph 86 % 0.01 in 142.0 W/m2 OVC
18:21 76.6 °F 71.7 °F 29.87 in Calm   1.2 mph 85 % 0.01 in 237.0 W/m2 OVC
18:26 76.6 °F 72.1 °F 29.88 in Calm   1.2 mph 86 % 0.01 in 334.0 W/m2 OVC
18:31 76.9 °F 72.4 °F 29.88 in Calm     86 % 0.01 in 221.0 W/m2 OVC
18:36 76.9 °F 72.0 °F 29.88 in Calm   1.2 mph 85 % 0.01 in 123.0 W/m2 BKN
18:41 76.7 °F 71.8 °F 29.88 in Calm   1.2 mph 85 % 0.01 in 127.0 W/m2 BKN
18:46 76.8 °F 71.9 °F 29.88 in Calm     85 % 0.01 in 123.0 W/m2 BKN
18:48 76.8 °F 71.9 °F 29.88 in Calm     85 % 0.01 in 95.0 W/m2 BKN
18:53 76.6 °F 71.7 °F 29.88 in Calm     85 % 0.01 in 63.0 W/m2 BKN
18:58 76.4 °F 71.6 °F 29.88 in Calm   1.2 mph 85 % 0.01 in 107.0 W/m2 BKN
19:03 76.3 °F 71.5 °F 29.88 in Calm   1.2 mph 85 % 0.00 in 86.0 W/m2 BKN
19:08 76.3 °F 71.5 °F 29.88 in Calm   1.2 mph 85 % 0.00 in 91.0 W/m2 BKN
19:13 76.2 °F 71.4 °F 29.88 in Calm     85 % 0.00 in 67.0 W/m2 BKN
19:18 76.2 °F 71.4 °F 29.88 in Calm     85 % 0.00 in 56.0 W/m2 BKN
19:23 76.1 °F 71.3 °F 29.88 in Calm     85 % 0.00 in 44.0 W/m2 BKN
19:28 76.0 °F 71.5 °F 29.88 in Calm     86 % 0.00 in 39.0 W/m2 BKN
19:33 75.9 °F 71.4 °F 29.88 in Calm     86 % 0.00 in 35.0 W/m2 BKN
19:38 75.8 °F 71.3 °F 29.88 in Calm     86 % 0.00 in 28.0 W/m2 BKN
19:43 75.8 °F 71.3 °F 29.88 in Calm   1.2 mph 86 % 0.00 in 30.0 W/m2 BKN
19:48 75.7 °F 71.2 °F 29.88 in Calm   3.5 mph 86 % 0.00 in 28.0 W/m2 BKN
19:53 75.6 °F 71.1 °F 29.88 in Calm   3.5 mph 86 % 0.00 in 39.0 W/m2 BKN
19:58 75.5 °F 71.0 °F 29.88 in Calm     86 % 0.00 in 26.0 W/m2 BKN
20:03 75.4 °F 70.9 °F 29.88 in Calm     86 % 0.00 in 23.0 W/m2 OVC
20:08 75.3 °F 70.8 °F 29.88 in Calm     86 % 0.00 in 19.0 W/m2 OVC
20:13 75.2 °F 70.7 °F 29.88 in Calm     86 % 0.00 in 12.0 W/m2 OVC
20:18 75.1 °F 71.0 °F 29.88 in Calm     87 % 0.00 in 7.0 W/m2 OVC
20:24 75.0 °F 70.9 °F 29.88 in Calm     87 % 0.00 in 5.0 W/m2 OVC
20:29 74.9 °F 70.8 °F 29.88 in Calm     87 % 0.00 in 0.0 W/m2 OVC
20:34 74.8 °F 70.7 °F 29.88 in Calm     87 % 0.00 in 0.0 W/m2 OVC
20:39 74.7 °F 70.9 °F 29.88 in Calm     88 % 0.00 in 0.0 W/m2 OVC
20:44 74.6 °F 70.8 °F 29.88 in Calm     88 % 0.00 in 0.0 W/m2 OVC
20:49 74.4 °F 70.6 °F 29.88 in Calm     88 % 0.00 in 0.0 W/m2 OVC
20:54 74.3 °F 70.5 °F 29.88 in Calm     88 % 0.00 in 0.0 W/m2 SCT
20:59 74.3 °F 70.8 °F 29.89 in Calm     89 % 0.00 in 0.0 W/m2 SCT
21:04 74.3 °F 70.8 °F 29.89 in Calm     89 % 0.00 in 0.0 W/m2 CLR
21:09 74.2 °F 70.7 °F 29.89 in Calm     89 % 0.00 in 0.0 W/m2 CLR
21:14 74.2 °F 70.7 °F 29.89 in Calm     89 % 0.00 in 0.0 W/m2 CLR
21:19 74.1 °F 70.6 °F 29.88 in Calm     89 % 0.00 in 0.0 W/m2 CLR
21:24 74.0 °F 70.6 °F 29.88 in Calm     89 % 0.00 in 0.0 W/m2 CLR
21:29 74.0 °F 70.9 °F 29.89 in Calm     90 % 0.00 in 0.0 W/m2 CLR
21:34 73.9 °F 70.8 °F 29.89 in Calm     90 % 0.00 in 0.0 W/m2 CLR
21:39 73.8 °F 70.7 °F 29.89 in Calm   3.5 mph 90 % 0.00 in 0.0 W/m2 CLR
21:44 73.8 °F 70.7 °F 29.89 in Calm   3.5 mph 90 % 0.00 in 0.0 W/m2 CLR
21:49 73.9 °F 70.8 °F 29.90 in Calm   3.5 mph 90 % 0.00 in 0.0 W/m2 CLR
21:54 74.0 °F 70.9 °F 29.89 in Calm   1.2 mph 90 % 0.00 in 0.0 W/m2 BKN
21:59 73.9 °F 70.8 °F 29.89 in Calm     90 % 0.00 in 0.0 W/m2 BKN
22:04 73.7 °F 70.6 °F 29.89 in Calm     90 % 0.00 in 0.0 W/m2 BKN
22:09 73.6 °F 70.5 °F 29.89 in Calm     90 % 0.00 in 0.0 W/m2 BKN
22:14 73.4 °F 70.6 °F 29.89 in Calm     91 % 0.00 in 0.0 W/m2 BKN
22:19 73.3 °F 70.5 °F 29.89 in Calm     91 % 0.00 in 0.0 W/m2 BKN
22:24 73.1 °F 70.3 °F 29.89 in Calm     91 % 0.00 in 0.0 W/m2 BKN
22:29 73.1 °F 70.3 °F 29.89 in Calm     91 % 0.00 in 0.0 W/m2 BKN
22:34 73.1 °F 70.6 °F 29.90 in Calm     92 % 0.00 in 0.0 W/m2 BKN
22:39 73.1 °F 70.6 °F 29.90 in Calm     92 % 0.00 in 0.0 W/m2 BKN
22:44 73.2 °F 70.7 °F 29.89 in Calm     92 % 0.00 in 0.0 W/m2 BKN
22:49 73.1 °F 70.6 °F 29.89 in Calm     92 % 0.00 in 0.0 W/m2 BKN
22:54 73.1 °F 70.6 °F 29.89 in Calm     92 % 0.00 in 0.0 W/m2 BKN
22:59 73.1 °F 70.6 °F 29.89 in Calm     92 % 0.00 in 0.0 W/m2 BKN
23:04 73.0 °F 70.5 °F 29.89 in Calm     92 % 0.00 in 0.0 W/m2 OVC
23:09 73.0 °F 70.5 °F 29.89 in Calm     92 % 0.00 in 0.0 W/m2 OVC
23:14 73.0 °F 70.5 °F 29.89 in Calm     92 % 0.00 in 0.0 W/m2 OVC
23:19 73.0 °F 70.5 °F 29.89 in Calm   1.2 mph 92 % 0.00 in 0.0 W/m2 OVC
23:24 73.1 °F 71.0 °F 29.89 in South 0.8 mph 3.5 mph 93 % 0.00 in 0.0 W/m2 OVC
23:29 73.1 °F 71.0 °F 29.89 in Calm   3.5 mph 93 % 0.00 in 0.0 W/m2 OVC
23:34 73.1 °F 71.0 °F 29.88 in Calm   3.5 mph 93 % 0.00 in 0.0 W/m2 OVC
23:39 73.0 °F 70.9 °F 29.88 in Calm     93 % 0.00 in 0.0 W/m2 OVC
23:44 73.0 °F 70.9 °F 29.88 in Calm     93 % 0.00 in 0.0 W/m2 OVC
23:49 73.0 °F 70.9 °F 29.89 in Calm     93 % 0.00 in 0.0 W/m2 OVC
23:55 73.0 °F 70.9 °F 29.89 in Calm   1.2 mph 93 % 0.00 in 0.0 W/m2 SCT
Air Products Campus Weather
Compliments of Weather Underground - 3.5 mb